Location: New Plymouth
(39.0670°S, 174.0830°E)
Time: 18:04:48
(UTC+12:00)

NOAA 19 - Pass Details

Date: 20 August 2019
Orbit: 840 x 862 km, 99.2° (Epoch: 21 September)

Event Time Altitude Azimuth Distance (km) Brightness Sun altitude
Rises 05:07:45 0° 8° (N) 3,385 8.4 -23.3°
Reaches altitude 10° 05:10:07 10° 5° (N) 2,458 7.6 -22.9°
Maximum altitude 05:15:32 66° 282° (WNW) 925 5.1 -21.8°
Drops below altitude 10° 05:21:02 10° 200° (SSW) 2,494 7.4 -20.8°
Sets 05:23:27 0° 197° (SSW) 3,438 8.2 -20.3°
